Miscellaneous Local Product
Issued by NWS North Platte, NE

Home | Current Version | Previous Version | Text Only | Print | Product List | Glossary On
Versions: 1 2 3 4 5 6 7 8 9 10 11 12 13 14 15 16 17 18 19 20 21 22 23 24 25 26 27 28 29 30 31 32 33 34 35 36 37 38 39 40 41 42 43 44 45 46 47 48 49 50
000
AXUS43 KLBF 031110
MISLBF


WESTERN AND NORTH CENTRAL NEBRASKA HOURLY WEATHER ROUNDUP
NATIONAL WEATHER SERVICE NORTH PLATTE NE
600 AM CDT MON AUG 03 2015

***STATIONS NOT REPORTING VARIABLES SUCH AS SKY/WEATHER OR
PRESSURE ARE PROVIDED BY THE NEBRASKA DEPARTMENT OF
ROADS...RAWS...AND APRS NETWORKS...AND ARE NOT UNDER
NATIONAL WEATHER SERVICE QUALITY CONTROL***

...OBSERVATIONS IN AND NEAR THE EASTERN PANHANDLE OF NEBRASKA...

CITY           SKY/WX    TMP DP  RH WIND       PRES   REMARKS
PINE RIDGE     CLEAR     62  56  80 E6        30.01R
CHADRON        PTCLDY    58  56  93 N3        29.99S
ALLIANCE       MOCLDY    59  57  93 SE7       30.00S
SIDNEY         MOCLDY    59  54  83 W7        30.02S
BIG SPRINGS      N/A     65  59  82 E3          N/A
$$

...OBSERVATIONS IN NORTH CENTRAL NEBRASKA...

CITY           SKY/WX    TMP DP  RH WIND       PRES   REMARKS
THEDFORD       PTCLDY    60  59  96 CALM      30.02S
AINSWORTH      CLOUDY    64  62  93 N5        30.04R
O`NEILL        MOCLDY    61  60  96 CALM      30.01R
ORD            CLEAR     61  58  90 CALM      29.97S
BROKEN BOW     PTCLDY    66  59  78 E6        29.99S
SPRINGVIEW       N/A     61  60  95 E3          N/A
CHAMBERS         N/A     63  59  87 CALM        N/A
EWING            N/A     61  59  94 CALM        N/A
$$

...OBSERVATIONS IN SOUTHWEST NEBRASKA AND FAR NORTHEAST COLORADO...

CITY           SKY/WX    TMP DP  RH WIND       PRES   REMARKS
WRAY           FAIR      63  57  82 CALM      30.00S
HOLYOKE        FAIR      63  59  88 W6        30.00S
IMPERIAL       CLEAR     62  55  77 NE3       30.00R
OGALLALA       MOCLDY    62  58  87 E7        30.00S
NORTH PLATTE   PTCLDY    59  57  93 E3        29.99S
MCCOOK         CLEAR     62  57  83 NE5       29.97S
LEXINGTON      PTCLDY    64  62  92 E6        29.98R
PAXTON           N/A     60  57  89 CALM        N/A
BRADY            N/A     59  56  91 CALM        N/A
CALLAWAY         N/A     65  63  93 E8          N/A
$$

...NORTH PLATTE AREA...

CITY           SKY/WX    TMP DP  RH WIND       PRES   REMARKS
AIRPORT        PTCLDY    59  57  93 E3        29.99S
DOWNTOWN         N/A     64  60  87 CALM        N/A
SANDRIDGE        N/A     62  58  87 CALM        N/A
HILLCREST        N/A     64  61  91 E9          N/A
$$

...SOME WEATHER OBSERVATIONS FROM AROUND THE REGION...

CITY           SKY/WX    TMP DP  RH WIND       PRES   REMARKS
DENVER         CLOUDY    66  49  54 S10       30.08S
LARAMIE        CLOUDY    57  45  64 S6        30.21R
CHEYENNE       CLOUDY    58  49  72 SW5       30.13S
SCOTTSBLUFF    MOCLDY    61  56  83 CALM      29.99F
RAPID CITY     CLEAR     57  51  80 CALM      30.02F
PIERRE         CLEAR     56  53  90 N7        29.98R
WINNER         FAIR      61  56  83 SE6       29.98F
SIOUX FALLS    PTCLDY    56  54  93 NW3       29.97R
OMAHA          PTCLDY    67  64  90 N5        29.95R
GRAND ISLAND   CLEAR     64  63  96 NE7       29.97S
KANSAS CITY    PTCLDY    68  65  90 S7        29.90F
WICHITA        PTCLDY    71  66  84 SE5       29.92R
HAYS           CLEAR     66  59  77 S6        29.93S
LIBERAL        MOCLDY    70  63  78 SW3       29.94F
GOODLAND       MOCLDY    63  58  83 W3        30.00S
$$



USA.gov is the U.S. government's official web portal to all federal, state and local government web resources and services.